Погода в Кызылорде

Хотите узнать прогноз погоды в Кызылорде? Тогда Вам сюда: Погода в Кызылорде

Поиск расширенной информации на нашем сайте:

Полезная информация:

Новости сайта



02.01.2020
Опубликован Долгосрочный прогноз погоды по городам России и ближнего зарубежья на январь 2020 года.
Карты: Прогноз на январь и февраль 2020 года, Сравнение прогнозируемой аномалии приземной температуры воздуха на январь 2020 года по разным моделям.




Погода в Кызылорде - сегодня

Время (UTC), дата Ветер
(°,м/с) 
Видим.   Явления Облачность Т
(°С)
Тd
(°С)
f(%) Тe
(°С)
Pmin
(гПа)
dP
(гПа)
Po
(мм)
O2
(г/м3)
Тmin Tmax R s Состояние
почвы
12 09.08.20 280 (З) 20000 м    ясно 
+34 +10.7 24 +36  999.5  0.8  739  263           
15 09.08.20 300 (СЗ) 20000 м    ясно 
+30.1 +10 29 +32  999.9  0.2  739  267    +35.9       
18 09.08.20 тихо ()   н/о    ясно 
+25.4 +12 43 +30  1000  -0.1  739  270    +35.9       
21 09.08.20 190 (Ю) н/о    6/0 средняя 
[Ac trans]
+24.9 +12.2 45 +29  999.3  -0.8  738  270           
00 10.08.20 210 (ЮЗ) н/о    8/0 средняя 
[Ac trans]
+24 +10 41 +25  999.5  0.2  739  272           
03 10.08.20 230 (ЮЗ) 20000 м    8/4 600 м кучево-дожд., средняя 
[Cb calv|Ac trans]
+25.9 +10.9 39 +29  1000.4  739  270           
06 10.08.20 250 (З) 4000 м  слаб. ливневой дождь  10/10 600 м кучево-дожд. 
[Cb cap]
+29.2 +11.1 33 +32  1002.1  1.7  741  268  +23.8         
09 10.08.20 270 (З) 20000 м  {ливн. осадки}  4/4 1000 м кучево-дожд. 
[Cb calv]
+32.3 +9.4 24 +33  1000.7  -1.1  740  265           
12 10.08.20 280 (З) 20000 м  {ливн. осадки}  3/3 1500 м 
[Cu hum]
+31.2 +5.9 20 +31  1001  0.2  740  267           
15 10.08.20 310 (СЗ) 20000 м    ясно 
+26.7 +9 33 +27  1001.9  0.7  740  270    +32.8  0.0     
18 10.08.20 320 (СЗ) н/о    ясно 
+22.9 +8.9 41 +23  1002.9  0.7  741  274    +32.8  0.0     
21 10.08.20 280 (З) н/о    ясно 
+19.6 +7.7 46 +21  1002.9  -0.2  741  277           
00 11.08.20 260 (З) н/о    ясно 
+18.6 +7.8 49 +19  1004  1.1  742  278           
03 11.08.20 240 (ЮЗ) 20000 м    ясно 
+20.7 +7.8 43 +21  1005.6  1.7  743  277           
06 11.08.20 260 (З) 20000 м    ясно 
+26.1 +9.2 34 +26  1005.5  0.2  743  272  +17.8         
09 11.08.20 250 (З) 20000 м    ясно 
+29.9 +7.4 24 +30  1004  -1.3  742  268           
12 11.08.20 260 (З) 20000 м    ясно 
+29.4 +6.5 24 +29  1004.1  742  269           
15 11.08.20 270 (З) 20000 м    ясно 
+25.9 +9.7 36 +27  1004.5  0.3  742  272    +30.8       
18 11.08.20 тихо ()   н/о    ясно 
+21.1 +8.9 46 +21  1005.6  0.8  743  276    +30.8       
21 11.08.20 тихо ()   н/о    ясно 
+17.4 +7.7 53 +17  1005.3  -0.5  743  280           
00 12.08.20 тихо ()   н/о    ясно 
+16.1 +8.9 62 +16  1005.5  0.2  743  281           
03 12.08.20 270 (З) 20000 м    ясно 
+19.8 +6.7 42 +21  1006.5  1.1  744  278           
06 12.08.20 290 (З) 20000 м    4/0 средняя, верхняя 
[Ac lent|Ci]
+27.9 +9.4 31 +28  1006.4  0.4  744  270  +15.2         
09 12.08.20 310 (СЗ) 20000 м    6/3 1500 м верхняя 
[Cu hum|Ci]
+30.3 +6.4 22 +30  1006.1  -0.2  744  269           
12 12.08.20 320 (СЗ) 20000 м    8/3 1500 м средняя, верхняя 
[Cu hum|Ac lent|Ci]
+29.8 +6.4 23 +30  1005.8  -0.3  743  269           
Время (UTC), дата Ветер
(°,м/с) 
Видим.   Явления Облачность Т
(°С)
Тd
(°С)
f(%) Тe
(°С)
Pmin
(гПа)
dP
(гПа)
Po
(мм)
O2
(г/м3)
Тmin Tmax R s Состояние
почвы

Для получения пояснительной информации подведите курсор к названию столбца.

ПОГОДА в Кызылорде - архив

Всё, что Вы хотите узнать о погоде в Кызылорде - удобно и подробно!

Выберите нужную дату (начиная с 1 января 2019* года) и нажмите кнопку "Найти".
Будут отображены архивные сводки погоды по пункту Кызылорда, начиная с указанной даты.


Отображать данные в формате CSV (для использования в таблицах Excel)


Внимание! Наш архив погоды предназначен исключительно для личного некоммерческого использования в познавательных целях. Если Вам необходимы официальные справки о состоянии погоды (для производственных, юридических, коммерческих и т.п. целей), обращайтесь в органы Росгидромета.

*Примечание: данная дата относится к архиву по метеостанциям СССР (Россия, СНГ, Балтия).
Архив по метеостанциям Зарубежной Европы и Азии (кроме Китая) хранится 10 дней, по другим регионам земного шара (Китай, Африка, Америка, Австралия, Океания) - 1 день.

Кызылорда - район местоположения метеостанции


Название, широта, долгота, высота метеостанции:
Кызылорда (город) 44.8°ш. 65.5°д. 130 м над ур. моря [Казахстан]

Дополнительная информация

В oтличие oт бoльшинства пoгoдных сайтoв мы публикуем пoдрoбную метеoинфoрмацию в детальнoм прoфессиoнальнoм фoрмате.

Характеристики температуры и влажнoсти вoздуха измеряются на высoте 2 м в тени вдали oт зданий и деревьев.
Скoрoсть ветра измеряется на высoте 10 м (на урoвне рoста челoвека скoрoсть ветра ниже в 1.5-2 раза). Если метеoстанция нахoдится в гoрoде или в лесу, тo скoрoсть ветра занижена на 2-4 м/с пo сравнению с oткрытым местoм. Скoрoсть ветра над акватoриями крупных рек и oзёр, а также на вершинах хoлмoв на 2-5 м/с выше, чем в oбычных услoвиях.
Атмoсфернoе давление в разных тoчках местнoсти мoжет значительнo oтличаться oт давления на метеoстанции, в зависимoсти oт услoвий рельефа (при пoдъёме на 10 м давление пoнижается примернo на 1 мм рт.ст.).